EW0890 Weather Reports


time (UTC)temp
F
wind
direction
speed
knots
gust
knots
rain 1hr
in
rain 24hr
in
rain mn
in
humidity
%
barometer
mb
20260903014018 79 255 0.0 0.0 0.00 0.00 0.00 91 1014.1
20260903013519 80 255 0.0 0.0 0.00 0.00 0.00 91 1014.0
20260903013109 80 0 0.0 0.0 0.00 0.00 0.00 91 1014.2
20260903013014 80 255 0.0 0.0 0.00 0.00 0.00 91 1014.0
20260903012508 80 255 0.0 0.0 0.00 0.00 0.00 90 1014.0
20260903012009 80 255 0.0 0.0 0.00 0.00 0.00 90 1014.0
20260903011604 81 0 0.0 0.0 0.00 0.00 0.00 90 1014.1
20260903011521 81 255 0.0 0.0 0.00 0.00 0.00 90 1014.0
20260903011007 81 255 0.0 0.0 0.00 0.00 0.00 89 1013.9
20260903010513 81 255 0.0 0.0 0.00 0.00 0.00 89 1013.9
20260903010107 82 0 0.0 0.0 0.00 0.00 0.00 88 1014.1
20260903010026 82 255 0.0 0.0 0.00 0.00 0.00 88 1013.8
20260903005512 82 255 0.0 0.0 0.00 0.00 0.00 87 1013.9
20260903005012 83 255 0.0 0.0 0.00 0.00 0.00 86 1013.9
20260903004604 83 0 0.0 0.0 0.00 0.00 0.00 85 1014.0
20260903004536 83 255 0.0 0.0 0.00 0.00 0.00 85 1013.8
20260903004014 84 255 0.0 0.0 0.00 0.00 0.00 84 1013.8
20260903003517 85 255 0.0 0.0 0.00 0.00 0.00 83 1013.8
20260903003110 86 0 0.0 0.0 0.00 0.00 0.00 81 1014.0
20260903003032 86 255 0.0 0.0 0.00 0.00 0.00 81 1013.7
20260903002517 87 255 0.0 0.0 0.00 0.00 0.00 80 1013.8
20260903002018 88 255 0.0 0.0 0.00 0.00 0.00 77 1013.9
20260903001622 89 0 0.0 0.0 0.00 0.00 0.00 75 1014.1
20260903001517 89 255 0.0 0.0 0.00 0.00 0.00 75 1014.0
20260903001008 90 255 0.0 0.0 0.00 0.00 0.00 73 1013.9
20260903000510 91 255 0.0 0.0 0.00 0.00 0.00 71 1013.9
20260903000108 92 0 0.0 0.0 0.00 0.00 0.00 70 1014.1
20260903000021 92 255 0.0 0.0 0.00 0.00 0.00 70 1013.9
20260902235510 93 255 0.0 0.0 0.00 0.00 0.00 69 1013.9
20260902235016 93 255 0.0 0.0 0.00 0.00 0.00 68 1013.9
20260902234627 94 0 0.0 0.0 0.00 0.00 0.00 67 1014.1
20260902234527 94 255 0.0 0.0 0.00 0.00 0.00 67 1014.0
20260902234016 94 255 0.0 0.0 0.00 0.00 0.00 66 1013.9
20260902233516 94 255 0.0 0.0 0.00 0.00 0.00 66 1014.0
20260902233104 94 0 0.0 0.0 0.00 0.00 0.00 66 1014.2
20260902233032 94 255 0.0 0.0 0.00 0.00 0.00 66 1014.0
20260902232520 94 255 0.0 0.0 0.00 0.00 0.00 66 1014.0
20260902232017 94 255 0.0 0.0 0.00 0.00 0.00 66 1014.0
20260902231625 93 0 0.0 0.0 0.00 0.00 0.00 65 1014.2
20260902231532 93 255 0.0 0.0 0.00 0.00 0.00 65 1013.9
20260902231021 94 255 0.0 0.0 0.00 0.00 0.00 64 1014.0
20260902230518 94 255 0.0 0.0 0.00 0.00 0.00 64 1014.0
20260902230115 94 0 0.0 0.0 0.00 0.00 0.00 65 1014.3
20260902230016 94 267 0.0 0.0 0.00 0.00 0.00 65 1014.0
20260902225510 94 267 0.0 0.0 0.00 0.00 0.00 64 1014.0
20260902225012 93 272 0.0 0.0 0.00 0.00 0.00 65 1014.0
20260902224606 93 0 0.0 0.9 0.00 0.00 0.00 65 1014.3
20260902224526 93 271 0.0 0.9 0.00 0.00 0.00 65 1014.1
20260902224011 93 231 0.0 0.9 0.00 0.00 0.00 63 1014.1
20260902223512 93 262 0.0 2.6 0.00 0.00 0.00 63 1014.1
20260902223105 93 275 0.9 2.6 0.00 0.00 0.00 63 1014.4
20260902223030 93 274 0.9 2.6 0.00 0.00 0.00 62 1014.1
20260902222513 93 274 0.9 2.6 0.00 0.00 0.00 64 1014.2
20260902222016 93 265 0.9 2.6 0.00 0.00 0.00 63 1014.1
20260902221605 93 0 0.9 3.5 0.00 0.00 0.00 64 1014.3
20260902221531 93 285 0.9 3.5 0.00 0.00 0.00 64 1014.1
20260902221019 93 278 1.7 3.5 0.00 0.00 0.00 61 1014.1
20260902220519 93 285 1.7 3.5 0.00 0.00 0.00 62 1014.2
20260902220113 93 276 0.9 3.5 0.00 0.00 0.00 63 1014.5
20260902220036 93 251 0.9 3.5 0.00 0.00 0.00 63 1014.2
20260902215520 93 240 0.9 3.5 0.00 0.00 0.00 62 1014.1
20260902215016 93 213 0.9 4.3 0.00 0.00 0.00 62 1014.2
20260902214614 93 297 1.7 4.3 0.00 0.00 0.00 61 1014.5
20260902214528 93 281 2.6 4.3 0.00 0.00 0.00 61 1014.2
20260902214012 93 271 0.9 4.3 0.00 0.00 0.00 62 1014.2
20260902213511 93 278 1.7 4.3 0.00 0.00 0.00 62 1014.2
20260902213101 93 293 0.9 4.3 0.00 0.00 0.00 64 1014.5
20260902213030 93 259 0.9 3.5 0.00 0.00 0.00 64 1014.3
20260902212512 93 293 1.7 4.3 0.00 0.00 0.00 62 1014.3
20260902212013 93 302 1.7 4.3 0.00 0.00 0.00 62 1014.3
20260902211604 93 261 1.7 3.5 0.00 0.00 0.00 62 1014.6
20260902211530 93 282 1.7 3.5 0.00 0.00 0.00 61 1014.4
20260902211017 93 201 1.7 5.2 0.00 0.00 0.00 61 1014.4
20260902210514 93 306 2.6 5.2 0.00 0.00 0.00 62 1014.4
20260902210103 93 255 1.7 5.2 0.00 0.00 0.00 62 1014.6
20260902210049 93 304 1.7 5.2 0.00 0.00 0.00 62 1014.4
20260902205521 93 278 2.6 5.2 0.00 0.00 0.00 62 1014.4
20260902205016 93 287 1.7 4.3 0.00 0.00 0.00 60 1014.5
20260902204608 93 291 2.6 6.1 0.00 0.00 0.00 62 1014.8
20260902204535 93 281 2.6 6.1 0.00 0.00 0.00 61 1014.5
20260902204008 93 290 2.6 6.1 0.00 0.00 0.00 61 1014.5
20260902203508 93 290 1.7 7.0 0.00 0.00 0.00 63 1014.6
20260902203100 93 313 3.5 7.0 0.00 0.00 0.00 61 1014.7
20260902203024 93 240 3.5 7.0 0.00 0.00 0.00 61 1014.6
20260902202512 93 267 2.6 7.0 0.00 0.00 0.00 63 1014.6
20260902202014 93 283 2.6 5.2 0.00 0.00 0.00 62 1014.6
20260902201605 93 274 2.6 4.3 0.00 0.00 0.00 61 1014.8
20260902201504 93 298 2.6 4.3 0.00 0.00 0.00 61 1014.6
20260902201004 93 271 1.7 5.2 0.00 0.00 0.00 63 1014.7
20260902200505 93 252 1.7 5.2 0.00 0.00 0.00 63 1014.8
20260902200109 93 245 1.7 4.3 0.00 0.00 0.00 64 1014.9
20260902200013 93 278 1.7 4.3 0.00 0.00 0.00 63 1014.8
20260902195504 93 266 1.7 5.2 0.00 0.00 0.00 66 1014.9
20260902195004 93 263 1.7 5.2 0.00 0.00 0.00 63 1015.0
20260902194603 93 267 1.7 3.5 0.00 0.00 0.00 62 1015.1
20260902194515 93 298 1.7 3.5 0.00 0.00 0.00 60 1015.0
20260902194005 93 284 1.7 3.5 0.00 0.00 0.00 64 1015.0
20260902193508 93 289 1.7 4.3 0.00 0.00 0.00 65 1015.1
20260902193105 93 283 2.6 5.2 0.00 0.00 0.00 64 1015.3
20260902193019 93 274 2.6 5.2 0.00 0.00 0.00 61 1015.1
20260902192510 93 277 2.6 5.2 0.00 0.00 0.00 62 1015.2
20260902192011 93 280 2.6 6.1 0.00 0.00 0.00 64 1015.3
20260902191605 93 257 3.5 6.1 0.00 0.00 0.00 62 1015.3
20260902191529 93 264 3.5 6.1 0.00 0.00 0.00 61 1015.3
20260902191011 93 270 2.6 6.1 0.00 0.00 0.00 61 1015.3
20260902190513 93 258 2.6 6.1 0.00 0.00 0.00 63 1015.4
20260902190105 93 269 2.6 9.6 0.00 0.00 0.00 65 1015.7
20260902190006 93 233 2.6 9.6 0.00 0.00 0.00 64 1015.4
20260902185504 93 257 0.9 9.6 0.00 0.00 0.00 67 1015.5
20260902185004 92 297 4.3 7.8 0.00 0.00 0.00 61 1015.5
20260902184657 92 298 2.6 7.0 0.00 0.00 0.00 64 1015.7
20260902184518 92 287 2.6 7.0 0.00 0.00 0.00 64 1015.4
20260902184003 92 262 2.6 7.8 0.00 0.00 0.00 64 1015.5
20260902183504 92 285 3.5 7.8 0.00 0.00 0.00 62 1015.4
20260902183105 92 295 2.6 6.1 0.00 0.00 0.00 64 1015.7
20260902183018 92 293 2.6 6.1 0.00 0.00 0.00 66 1015.5
20260902182509 92 311 2.6 7.8 0.00 0.00 0.00 66 1015.5
20260902182007 92 298 3.5 7.8 0.00 0.00 0.00 64 1015.5
20260902181605 91 292 3.5 7.8 0.00 0.00 0.00 62 1015.6
20260902181520 91 297 4.3 7.8 0.00 0.00 0.00 64 1015.6
20260902181009 91 271 3.5 8.7 0.00 0.00 0.00 64 1015.7
20260902180511 91 292 4.3 8.7 0.00 0.00 0.00 63 1015.8
20260902180109 92 288 2.6 6.1 0.00 0.00 0.00 65 1015.8
20260902180024 92 277 2.6 6.1 0.00 0.00 0.00 66 1015.8
20260902175512 92 281 2.6 4.3 0.00 0.00 0.00 68 1015.7
20260902175015 92 240 1.7 5.2 0.00 0.00 0.00 68 1015.7
20260902174607 91 285 2.6 5.2 0.00 0.00 0.00 68 1015.7
20260902174507 91 280 2.6 5.2 0.00 0.00 0.00 68 1015.6
20260902174004 91 236 3.5 8.7 0.00 0.00 0.00 67 1015.7
20260902173505 91 293 2.6 8.7 0.00 0.00 0.00 68 1015.7
20260902173104 91 272 2.6 6.1 0.00 0.00 0.00 67 1015.9
20260902173010 90 247 2.6 6.1 0.00 0.00 0.00 68 1015.7
20260902172504 90 293 3.5 6.1 0.00 0.00 0.00 68 1015.7
20260902172006 90 272 3.5 6.1 0.00 0.00 0.00 68 1015.8
20260902171609 90 278 3.5 7.0 0.00 0.00 0.00 68 1015.9
20260902171521 90 246 3.5 7.0 0.00 0.00 0.00 67 1015.7
20260902171007 90 280 2.6 7.0 0.00 0.00 0.00 69 1015.8
20260902170508 90 257 3.5 5.2 0.00 0.00 0.00 69 1015.8
20260902170022 89 279 1.7 5.2 0.00 0.00 0.00 72 1015.9
20260902165513 89 256 2.6 5.2 0.00 0.00 0.00 71 1016.0
20260902165011 89 288 3.5 5.2 0.00 0.00 0.00 71 1016.0
20260902164603 89 281 1.7 4.3 0.00 0.00 0.00 72 1016.0
20260902164530 88 242 1.7 4.3 0.00 0.00 0.00 73 1016.0
20260902164015 88 283 2.6 4.3 0.00 0.00 0.00 71 1016.1
20260902163514 88 242 1.7 4.3 0.00 0.00 0.00 73 1016.2
20260902163100 87 281 1.7 5.2 0.00 0.00 0.00 72 1016.1
20260902163007 87 268 1.7 5.2 0.00 0.00 0.00 72 1016.2
20260902162504 87 290 3.5 6.1 0.00 0.00 0.00 70 1016.0
20260902162005 87 279 3.5 7.0 0.00 0.00 0.00 70 1016.2
20260902161611 87 287 3.5 7.8 0.00 0.00 0.00 70 1016.1
20260902161518 88 288 3.5 7.8 0.00 0.00 0.00 70 1016.2
20260902161013 87 300 3.5 7.8 0.00 0.00 0.00 71 1016.2
20260902160509 87 300 4.3 7.8 0.00 0.00 0.00 71 1016.2
20260902160059 87 233 3.5 6.1 0.00 0.00 0.00 72 1016.2
20260902160020 87 271 3.5 6.1 0.00 0.00 0.00 72 1016.2
20260902155509 86 265 2.6 6.1 0.00 0.00 0.00 73 1016.2
20260902155014 86 288 3.5 6.1 0.00 0.00 0.00 72 1016.2
20260902154602 86 290 3.5 7.0 0.00 0.00 0.00 73 1016.2
20260902154526 86 257 3.5 7.0 0.00 0.00 0.00 72 1016.2
20260902154011 86 283 3.5 7.0 0.00 0.00 0.00 71 1016.2
20260902153511 86 285 4.3 7.8 0.00 0.00 0.00 72 1016.2
20260902153114 86 278 3.5 7.8 0.00 0.00 0.00 73 1016.2
20260902153029 85 287 3.5 7.8 0.00 0.00 0.00 73 1016.2
20260902152515 85 288 3.5 7.0 0.00 0.00 0.00 73 1016.1
20260902152017 85 286 3.5 7.8 0.00 0.00 0.00 72 1016.0
20260902151603 85 297 2.6 7.8 0.00 0.00 0.00 73 1015.9
20260902151510 85 285 2.6 7.8 0.00 0.00 0.00 74 1016.0
20260902151004 84 231 3.5 7.8 0.00 0.00 0.00 75 1016.0
20260902150508 84 278 3.5 7.8 0.00 0.00 0.00 74 1016.0
20260902150015 84 259 3.5 7.8 0.00 0.00 0.00 76 1016.0
20260902145507 84 301 2.6 5.2 0.00 0.00 0.00 75 1016.0
20260902145008 84 269 2.6 5.2 0.00 0.00 0.00 75 1015.9
20260902144622 84 292 3.5 6.1 0.00 0.00 0.00 75 1015.9
20260902144531 84 289 3.5 6.1 0.00 0.00 0.00 76 1015.9
20260902144011 83 281 2.6 6.1 0.00 0.00 0.00 77 1015.9
20260902143509 83 290 3.5 6.1 0.00 0.00 0.00 76 1015.9
20260902143113 83 296 3.5 6.1 0.00 0.00 0.00 76 1015.9
20260902143025 83 283 3.5 6.1 0.00 0.00 0.00 76 1015.8
20260902142514 83 290 3.5 5.2 0.00 0.00 0.00 77 1015.8
20260902142014 83 274 2.6 5.2 0.00 0.00 0.00 78 1015.9
20260902141601 82 281 2.6 5.2 0.00 0.00 0.00 78 1015.8
20260902141536 82 266 2.6 5.2 0.00 0.00 0.00 78 1015.7
20260902141016 82 282 2.6 5.2 0.00 0.00 0.00 78 1015.9
20260902140516 82 253 2.6 5.2 0.00 0.00 0.00 79 1015.9
20260902140012 81 268 2.6 6.1 0.00 0.00 0.00 78 1016.0
20260902135508 81 311 2.6 6.1 0.00 0.00 0.00 78 1015.9
20260902135007 81 310 2.6 6.1 0.00 0.00 0.00 78 1015.9
20260902134603 81 280 2.6 5.2 0.00 0.00 0.00 79 1016.0
20260902134518 81 264 2.6 5.2 0.00 0.00 0.00 79 1015.9
20260902134007 80 267 2.6 5.2 0.00 0.00 0.00 80 1015.9
20260902133513 80 269 2.6 5.2 0.00 0.00 0.00 79 1016.0
20260902133101 80 290 2.6 4.3 0.00 0.00 0.00 79 1016.1
20260902133024 80 271 2.6 4.3 0.00 0.00 0.00 79 1016.1
20260902132516 80 280 2.6 4.3 0.00 0.00 0.00 79 1016.2
20260902132011 79 289 1.7 2.6 0.00 0.00 0.00 81 1016.2
20260902131600 79 278 0.9 3.5 0.00 0.00 0.00 82 1016.1
20260902131542 79 281 0.9 3.5 0.00 0.00 0.00 82 1016.1
20260902131013 79 288 1.7 3.5 0.00 0.00 0.00 83 1016.0
20260902130520 78 295 0.9 2.6 0.00 0.00 0.00 83 1016.1
20260902130100 78 281 0.9 3.5 0.00 0.00 0.00 84 1016.1
20260902130028 78 281 0.9 2.6 0.00 0.00 0.00 84 1016.2
20260902125517 78 295 1.7 3.5 0.00 0.00 0.00 84 1016.0
20260902125017 77 256 0.9 3.5 0.00 0.00 0.00 84 1016.1
20260902124610 77 274 0.9 2.6 0.00 0.00 0.00 84 1016.1
20260902124513 77 281 0.9 2.6 0.00 0.00 0.00 85 1016.0
20260902124006 77 240 0.9 2.6 0.00 0.00 0.00 85 1016.0
20260902123508 76 287 0.9 2.6 0.00 0.00 0.00 85 1016.0
20260902123104 76 246 1.7 2.6 0.00 0.00 0.00 85 1016.1
20260902123019 76 287 1.7 2.6 0.00 0.00 0.00 85 1016.1
20260902122511 76 290 0.9 2.6 0.00 0.00 0.00 85 1016.1
20260902122011 76 259 0.9 2.6 0.00 0.00 0.00 85 1016.1
20260902121612 75 270 0.9 2.6 0.00 0.00 0.00 86 1016.2
20260902121527 75 252 0.9 2.6 0.00 0.00 0.00 86 1016.2
20260902121011 75 274 0.9 2.6 0.00 0.00 0.00 86 1016.2
20260902120515 75 252 0.9 2.6 0.00 0.00 0.00 86 1016.1
20260902120111 75 241 0.9 2.6 0.00 0.00 0.00 87 1016.1
20260902120036 75 261 0.9 2.6 0.00 0.00 0.00 87 1016.0
20260902115514 74 285 0.9 2.6 0.00 0.00 0.00 87 1016.1
20260902115017 74 278 0.9 2.6 0.00 0.00 0.00 87 1016.0
20260902114618 74 293 0.9 2.6 0.00 0.00 0.00 87 1016.1
20260902114534 74 281 0.9 2.6 0.00 0.00 0.00 87 1016.2
20260902114006 74 238 0.9 2.6 0.00 0.00 0.00 88 1016.0
20260902113503 74 238 0.9 2.6 0.00 0.00 0.00 88 1016.0
20260902113102 74 217 0.9 2.6 0.00 0.00 0.00 88 1016.0
20260902113018 74 283 0.9 2.6 0.00 0.00 0.00 88 1016.0
20260902112510 74 195 0.9 3.5 0.00 0.00 0.00 88 1016.0
20260902112009 74 287 0.9 3.5 0.00 0.00 0.00 88 1016.0
20260902111605 74 303 0.9 2.6 0.00 0.00 0.00 88 1016.0
20260902111518 74 285 0.9 2.6 0.00 0.00 0.00 88 1016.0
20260902111006 74 276 0.9 3.5 0.00 0.00 0.00 88 1015.9
20260902110506 74 269 0.9 3.5 0.00 0.00 0.00 88 1015.8
20260902110114 74 311 0.0 2.6 0.00 0.00 0.00 88 1015.7
20260902110017 74 288 0.0 2.6 0.00 0.00 0.00 88 1015.8
20260902105509 74 321 0.9 2.6 0.00 0.00 0.00 88 1015.6
20260902105006 74 306 0.0 2.6 0.00 0.00 0.00 88 1015.7
20260902104604 74 283 0.9 3.5 0.00 0.00 0.00 88 1015.6
20260902104514 74 257 0.9 3.5 0.00 0.00 0.00 88 1015.7
20260902104004 74 249 0.9 3.5 0.00 0.00 0.00 88 1015.6
20260902103503 73 260 0.9 4.3 0.00 0.00 0.00 88 1015.8
20260902103120 73 272 0.9 4.3 0.00 0.00 0.00 88 1015.7
20260902103013 73 279 0.9 4.3 0.00 0.00 0.00 88 1015.8
20260902102506 73 276 0.9 2.6 0.00 0.00 0.00 88 1015.8
20260902102007 73 275 0.9 1.7 0.00 0.00 0.00 88 1015.7
20260902101600 73 252 0.9 2.6 0.00 0.00 0.00 88 1015.7
20260902101518 73 261 0.9 1.7 0.00 0.00 0.00 88 1015.7
20260902101006 73 289 0.0 2.6 0.00 0.00 0.00 88 1015.9
20260902100508 73 283 0.9 2.6 0.00 0.00 0.00 88 1015.8
20260902100104 73 281 0.9 1.7 0.00 0.00 0.00 88 1015.8
20260902100018 73 243 0.9 1.7 0.00 0.00 0.00 88 1015.7
20260902095510 73 295 0.9 2.6 0.00 0.00 0.00 88 1015.7
20260902095005 73 283 0.0 2.6 0.00 0.00 0.00 87 1015.7
20260902094602 74 278 0.9 2.6 0.00 0.00 0.00 87 1015.8
20260902094518 74 286 0.9 2.6 0.00 0.00 0.00 87 1015.8
20260902094012 74 277 0.9 1.7 0.00 0.00 0.00 87 1015.8
20260902093508 74 291 0.9 1.7 0.00 0.00 0.00 87 1015.7
20260902093111 74 247 0.9 2.6 0.00 0.00 0.00 87 1015.7
20260902093009 74 281 0.9 2.6 0.00 0.00 0.00 87 1015.7
20260902092504 74 258 0.9 2.6 0.00 0.00 0.00 87 1015.5
20260902092004 74 271 0.9 2.6 0.00 0.00 0.00 87 1015.5
20260902091559 74 270 0.9 1.7 0.00 0.00 0.00 87 1015.6
20260902091533 74 266 0.9 1.7 0.00 0.00 0.00 87 1015.6
20260902091007 74 250 0.9 1.7 0.00 0.00 0.00 87 1015.7
20260902090511 74 279 0.9 1.7 0.00 0.00 0.00 87 1015.5
20260902090020 74 306 0.9 2.6 0.00 0.00 0.00 87 1015.4
20260902085509 73 244 0.9 2.6 0.00 0.00 0.00 87 1015.4
20260902085009 73 278 0.9 2.6 0.00 0.00 0.00 87 1015.3
20260902084601 73 260 0.9 1.7 0.00 0.00 0.00 88 1015.4
20260902084517 73 278 0.9 1.7 0.00 0.00 0.00 88 1015.3
20260902084010 73 282 0.9 1.7 0.00 0.00 0.00 87 1015.4
20260902083509 73 289 0.9 1.7 0.00 0.00 0.00 87 1015.3
20260902083059 74 0 0.0 1.7 0.00 0.00 0.00 87 1015.4
20260902083021 74 306 0.0 1.7 0.00 0.00 0.00 87 1015.4
20260902082506 74 263 0.0 2.6 0.00 0.00 0.00 87 1015.3
20260902082008 74 283 0.9 2.6 0.00 0.00 0.00 86 1015.3
20260902081559 74 0 0.9 2.6 0.00 0.00 0.00 86 1015.4
20260902081524 74 281 0.9 2.6 0.00 0.00 0.00 86 1015.4
20260902081006 74 273 0.9 2.6 0.00 0.00 0.00 86 1015.4
20260902080508 74 284 0.9 2.6 0.00 0.00 0.00 86 1015.3
20260902080100 74 280 0.0 2.6 0.00 0.00 0.00 86 1015.4
20260902080018 74 290 0.0 2.6 0.00 0.00 0.00 85 1015.3
20260902075507 74 266 0.9 2.6 0.00 0.00 0.00 85 1015.4
20260902075008 74 268 0.9 3.5 0.00 0.00 0.00 85 1015.4
20260902074612 74 274 0.9 3.5 0.00 0.00 0.00 85 1015.3
20260902074528 74 265 0.9 3.5 0.00 0.00 0.00 85 1015.4
20260902074012 74 303 0.9 2.6 0.00 0.00 0.00 85 1015.4
20260902073515 74 290 0.9 2.6 0.00 0.00 0.00 86 1015.5
20260902073104 74 278 0.9 1.7 0.00 0.00 0.00 86 1015.3
20260902073024 74 316 0.9 1.7 0.00 0.00 0.00 86 1015.3
20260902072510 74 285 0.9 1.7 0.00 0.00 0.00 86 1015.4
20260902072009 74 288 0.0 1.7 0.00 0.00 0.00 86 1015.4
20260902071604 74 281 0.0 1.7 0.00 0.00 0.00 86 1015.5
20260902071546 74 311 0.0 1.7 0.00 0.00 0.00 86 1015.5
20260902071014 74 267 0.0 0.9 0.00 0.00 0.00 86 1015.6
20260902070505 75 284 0.0 0.9 0.00 0.00 0.00 86 1015.6
20260902070103 75 288 0.0 1.7 0.00 0.00 0.00 86 1015.6
20260902070015 75 293 0.9 1.7 0.00 0.00 0.00 86 1015.7
20260902065511 75 281 0.0 1.7 0.00 0.00 0.00 86 1015.7
20260902065008 75 285 0.9 1.7 0.00 0.00 0.00 85 1015.6
20260902064602 75 288 0.0 2.6 0.00 0.00 0.00 85 1015.6
20260902064523 75 278 0.0 2.6 0.00 0.00 0.00 85 1015.6
20260902064012 75 285 0.0 2.6 0.00 0.00 0.00 85 1015.7
20260902063510 75 274 0.9 1.7 0.00 0.00 0.00 85 1015.8
20260902063059 75 264 0.9 1.7 0.00 0.00 0.00 85 1015.7
20260902063027 75 278 0.9 1.7 0.00 0.00 0.00 85 1015.7
20260902062510 76 288 0.9 1.7 0.00 0.00 0.00 85 1015.7
20260902062011 76 296 0.9 1.7 0.00 0.00 0.00 85 1015.8
20260902061558 76 269 0.9 1.7 0.00 0.00 0.00 85 1015.7
20260902061540 76 281 0.9 1.7 0.00 0.00 0.00 85 1015.8
20260902061012 76 279 0.9 1.7 0.00 0.00 0.00 85 1015.6
20260902060512 76 289 0.9 1.7 0.00 0.00 0.00 85 1015.6
20260902060119 76 291 0.0 1.7 0.00 0.00 0.00 86 1015.7
20260902060031 76 273 0.9 1.7 0.00 0.00 0.00 86 1015.8
20260902055511 76 269 0.9 1.7 0.00 0.00 0.00 86 1015.7
20260902055007 76 284 0.9 1.7 0.00 0.00 0.00 86 1015.7
20260902054601 76 288 0.0 0.9 0.00 0.00 0.00 87 1015.7
20260902054532 76 264 0.0 0.9 0.00 0.00 0.00 87 1015.6
20260902054007 76 298 0.0 1.7 0.00 0.00 0.00 87 1015.7
20260902053512 76 298 0.0 1.7 0.00 0.00 0.00 88 1015.8
20260902053106 75 288 0.0 1.7 0.00 0.00 0.00 89 1015.6
20260902053025 75 300 0.0 1.7 0.00 0.00 0.00 89 1015.6
20260902052511 75 282 0.0 1.7 0.00 0.00 0.00 90 1015.6
20260902052012 75 269 0.0 0.9 0.00 0.00 0.00 91 1015.6
20260902051557 75 0 0.0 0.0 0.00 0.00 0.00 91 1015.6
20260902051530 75 243 0.0 0.0 0.00 0.00 0.00 92 1015.7
20260902051015 75 239 0.0 0.0 0.00 0.00 0.00 92 1015.6
20260902050511 75 156 0.0 0.0 0.00 0.00 0.00 92 1015.7
20260902050106 75 0 0.0 0.0 0.00 0.00 0.00 91 1015.7
20260902050035 75 40 0.0 0.0 0.00 0.00 0.00 91 1015.7
20260902045511 75 40 0.0 0.0 0.00 0.00 0.00 91 1015.8
20260902045010 75 40 0.0 0.0 0.00 0.00 0.00 91 1015.6
20260902044603 75 0 0.0 0.0 0.00 0.00 0.00 91 1015.6
20260902044531 75 41 0.0 0.0 0.00 0.00 0.00 91 1015.6
20260902044012 76 41 0.0 0.0 0.00 0.00 0.00 91 1015.6
20260902043511 76 64 0.0 0.0 0.00 0.00 0.00 91 1015.6
20260902043111 76 0 0.0 0.0 0.00 0.00 0.00 90 1015.6
20260902043022 76 63 0.0 0.0 0.00 0.00 0.00 90 1015.5
20260902042513 76 63 0.0 0.0 0.00 0.00 0.00 90 1015.6
20260902042013 76 63 0.0 0.0 0.00 0.00 0.00 90 1015.6
20260902041600 76 0 0.0 0.0 0.00 0.00 0.00 90 1015.6
20260902041532 76 60 0.0 0.0 0.00 0.00 0.00 90 1015.6
20260902041013 76 60 0.0 0.0 0.00 0.00 0.00 90 1015.5
20260902040512 76 122 0.0 0.0 0.00 0.00 0.00 90 1015.6
20260902040108 76 0 0.0 0.0 0.00 0.00 0.00 90 1015.7
20260902040027 76 129 0.0 0.0 0.00 0.00 0.00 90 1015.6
20260902035510 76 283 0.0 0.0 0.00 0.00 0.00 91 1015.7
20260902035015 76 237 0.0 0.9 0.00 0.00 0.00 91 1015.6
20260902034608 76 0 0.0 0.9 0.00 0.00 0.00 91 1015.7
20260902034528 76 224 0.0 0.9 0.00 0.00 0.00 91 1015.7
20260902034015 76 155 0.0 0.9 0.00 0.00 0.00 91 1015.6
20260902033514 76 220 0.0 0.0 0.00 0.00 0.00 91 1015.7
20260902033108 76 0 0.0 0.0 0.00 0.00 0.00 91 1015.8
20260902033028 76 234 0.0 0.0 0.00 0.00 0.00 91 1015.7
20260902032517 76 229 0.0 0.0 0.00 0.00 0.00 91 1015.8
20260902032012 75 243 0.0 0.0 0.00 0.00 0.00 91 1015.7
20260902031606 76 0 0.0 0.0 0.00 0.00 0.00 91 1015.8
20260902031526 76 242 0.0 0.0 0.00 0.00 0.00 91 1015.8
20260902031009 76 245 0.0 0.0 0.00 0.00 0.00 91 1015.9
20260902030515 76 245 0.0 0.0 0.00 0.00 0.00 91 1015.8
20260902030027 76 245 0.0 0.0 0.00 0.00 0.00 90 1015.8
20260902025513 76 245 0.0 0.0 0.00 0.00 0.00 90 1015.8
20260902025013 76 245 0.0 0.0 0.00 0.00 0.00 90 1015.8
20260902024601 76 0 0.0 0.0 0.00 0.00 0.00 90 1015.8
20260902024527 76 245 0.0 0.0 0.00 0.00 0.00 89 1015.7
20260902024003 76 245 0.0 0.0 0.00 0.00 0.00 89 1015.6
20260902023506 76 244 0.0 0.9 0.00 0.00 0.00 89 1015.8
20260902023105 76 0 0.0 0.9 0.00 0.00 0.00 89 1015.7
20260902023018 76 244 0.0 0.9 0.00 0.00 0.00 89 1015.7
20260902022507 76 229 0.0 0.9 0.00 0.00 0.00 89 1015.5
20260902022007 76 253 0.0 0.9 0.00 0.00 0.00 89 1015.5
20260902021603 76 0 0.0 0.9 0.00 0.00 0.00 89 1015.7
20260902021520 76 250 0.0 0.9 0.00 0.00 0.00 89 1015.6
20260902021007 77 246 0.0 0.0 0.00 0.00 0.00 89 1015.6
20260902020515 77 246 0.0 0.0 0.00 0.00 0.00 89 1015.4
20260902020105 77 0 0.0 0.0 0.00 0.00 0.00 89 1015.7
20260902020023 77 246 0.0 0.0 0.00 0.00 0.00 89 1015.4
20260902015511 77 246 0.0 0.0 0.00 0.00 0.00 89 1015.5
20260902015003 77 246 0.0 0.0 0.00 0.00 0.00 89 1015.5
20260902014600 77 0 0.0 0.0 0.00 0.00 0.00 89 1015.6
20260902014504 77 246 0.0 0.0 0.00 0.00 0.00 89 1015.4